[[{"header":{"parameterUnit":"m.s-1","parameterCategory":1,"la1":30.2991,"la2":30.254,"lo1":-89.0895,"lo2":-89.0444,"dy":0.0017,"dx":0.0017,"nx":28,"ny":28,"refTime":"2023-11-20T09:00:00:Z","depth":0,"parameterNumber":2,"parameterNumberName":"U-component_of_WINDS"},"data":[0,0,0,0,0,0,0,0,0,0,0,0,0,0,0,0,0,0,0,0,0,0,0,0,0,0,0,0,0,0,0,0,0,0,0,0,0,0,0,0,0,0,0,0,0,0,0,0,0,0,0,0,0,0,0,0,0,0,1.6024,1.6023,0,1.598,1.598,1.5979,1.5925,1.5924,1.5923,1.5923,1.5876,1.5876,1.5875,0,0,0,0,0,0,0,0,0,0,0,0,0,1.606,1.6059,1.6024,1.6023,1.6023,1.598,1.598,1.5979,1.5925,1.5924,1.5923,1.5922,1.5876,1.5876,1.5875,0,0,0,0,0,0,0,0,0,0,0,0,0,1.6033,1.6059,1.6024,1.5991,1.5987,1.598,1.598,1.5979,1.5925,1.5924,1.5923,1.5922,1.5877,1.5876,1.5875,1.5897,0,0,1.5873,1.5873,0,0,0,0,0,0,0,0,1.6034,1.6032,1.5996,1.5993,1.5989,1.5957,1.5975,1.5951,1.5926,1.5949,1.5923,1.5921,1.5904,1.5901,1.5896,1.5895,1.5893,1.5873,1.5873,1.5873,1.5872,0,0,0,0,0,0,0,1.6036,1.6033,1.6006,1.5996,1.5991,1.5978,1.5973,1.597,1.5934,1.5947,1.5943,1.5938,1.5902,1.5896,1.5894,1.5892,1.5873,1.5873,1.5872,1.5872,1.5907,1.5909,0,0,0,0,0,0,1.6043,1.6035,1.6008,1.6005,1.6009,1.5978,1.5972,1.5968,1.5934,1.5928,1.594,1.5936,1.5898,1.5895,1.5892,1.5915,1.5873,1.5872,1.5872,1.5906,1.5908,1.5909,0,0,0,0,0,0,1.6044,1.6041,1.6009,1.6019,1.6014,1.5979,1.5975,1.5968,1.5963,1.5929,1.5922,1.5941,1.5897,1.5893,1.5896,1.5913,1.5872,1.5871,1.5904,1.5906,1.5908,1.5962,0,0,0,0,0,0,1.6046,1.6042,1.605,1.602,1.6014,1.6015,1.5976,1.5968,1.5962,1.5957,1.5928,1.5922,1.5896,1.5898,1.5896,1.5911,1.5871,1.5903,1.5905,1.5908,1.5958,1.5965,1.5971,0,0,0,0,0,1.6047,1.6066,1.6051,1.6048,1.6023,1.6016,1.6012,1.5982,1.5963,1.5971,1.5949,1.5923,1.5912,1.5898,1.5896,1.5911,1.5901,1.5905,1.5907,1.5955,1.5964,1.5971,0,0,0,0,0,0,1.6098,1.6061,1.6044,1.6054,1.6038,1.6007,1.6015,1.5992,1.5981,1.5977,1.594,1.5934,1.5942,1.5927,1.5913,1.5931,1.5903,1.5905,1.594,1.5948,1.5954,1.5957,1.587,0,0,0,0,0,1.6111,1.6109,1.6076,1.6088,1.6082,1.605,1.6046,1.6024,1.6007,1.6,1.5978,1.5962,1.5955,1.5951,1.5942,1.5956,1.5949,1.5966,1.5972,1.5978,1.598,1.5987,1.5994,1.5919,1.5919,1.5919,0,0,1.6136,1.6116,1.6117,1.6098,1.6084,1.6082,1.6045,1.6044,1.6043,1.5999,1.6001,1.5985,1.5964,1.5974,1.5976,1.5961,1.6,1.5982,1.5986,1.5986,1.5991,1.5998,1.6005,1.5921,1.5921,1.592,0,0,1.6182,1.6167,1.6175,1.6162,1.6141,1.612,1.6122,1.6094,1.6082,1.6084,1.6052,1.6049,1.6038,1.6024,1.6016,1.6059,1.6034,1.6058,1.6091,1.6098,1.6104,1.6109,1.6124,1.613,1.606,1.606,1.6061,0,1.6216,1.6213,1.6182,1.6184,1.6177,1.6139,1.6147,1.6136,1.6113,1.6109,1.6093,1.6079,1.6062,1.6068,1.6078,1.6073,1.6074,1.606,1.6106,1.6111,1.6115,1.6129,1.6135,1.6063,1.6063,1.6063,1.6062,0,1.6256,1.6254,1.6263,1.6243,1.6237,1.6242,1.6213,1.621,1.619,1.6171,1.6174,1.6153,1.614,1.614,1.6119,1.6143,1.6134,1.6113,1.6083,1.6126,1.6138,1.6143,1.6068,1.6067,1.6066,1.6065,0,0,1.633,1.6295,1.6299,1.6289,1.6265,1.6262,1.6266,1.6255,1.6253,1.624,1.6242,1.6234,1.6214,1.6205,1.6183,1.619,1.6226,1.6167,1.6166,1.6179,1.625,1.6266,1.6273,1.621,1.621,1.6211,1.6252,0,1.637,1.6375,1.6349,1.636,1.6358,1.6323,1.6327,1.6312,1.6295,1.6291,1.6272,1.6267,1.6241,1.6236,1.6241,1.622,1.6239,1.6217,1.6211,1.6211,1.6216,1.6279,1.6295,1.6335,1.6257,1.6257,1.6258,0,1.6417,1.6407,1.6419,1.6395,1.6393,1.6397,1.6384,1.6381,1.6364,1.6351,1.6342,1.6318,1.632,1.6293,1.6296,1.6281,1.6278,1.6267,1.6268,1.6265,1.6236,1.6278,1.6346,1.6352,1.6265,1.6265,1.6264,0,1.647,1.646,1.6465,1.6459,1.6431,1.6434,1.6423,1.6404,1.6399,1.6389,1.6385,1.6375,1.6369,1.6362,1.6335,1.6319,1.6341,1.6312,1.633,1.6331,1.6335,1.6335,1.6403,1.6334,1.6334,1.6334,1.6334,0,1.6517,1.6526,1.6489,1.6492,1.6501,1.6471,1.648,1.6465,1.645,1.645,1.6419,1.642,1.6386,1.6382,1.6362,1.6367,1.6365,1.6354,1.6349,1.6356,1.6358,1.6352,1.6349,1.6336,1.6335,1.6335,1.6335,0,1.6576,1.6552,1.6556,1.653,1.6524,1.6532,1.6509,1.6511,1.6493,1.6494,1.6492,1.6463,1.6458,1.6432,1.642,1.6407,1.6419,1.6408,1.6425,1.6421,1.644,1.6438,1.6506,1.6514,1.6441,1.6442,1.6443,0,1.6607,1.6613,1.6588,1.6587,1.6577,1.6574,1.6569,1.6541,1.6537,1.6519,1.6524,1.6516,1.6509,1.6503,1.648,1.6472,1.646,1.6485,1.6458,1.6466,1.646,1.6459,1.646,1.649,1.6491,1.6492,1.6492,0,1.6665,1.6653,1.6647,1.6638,1.6634,1.6625,1.6614,1.6615,1.6583,1.6581,1.6576,1.657,1.6559,1.6552,1.654,1.6528,1.6505,1.6501,1.6505,1.6512,1.6521,1.6516,1.6439,1.6499,1.6498,1.6498,1.6498,1.6497,1.671,1.6714,1.6697,1.6693,1.6682,1.6673,1.6674,1.6657,1.6653,1.6642,1.6626,1.6623,1.6607,1.6589,1.6579,1.6577,1.6563,1.6568,1.657,1.6571,1.6575,1.6523,1.6575,1.6574,1.6574,1.6574,1.6574,0,1.6765,1.6753,1.675,1.6736,1.6733,1.6713,1.6701,1.6699,1.6697,1.6685,1.6679,1.6674,1.6667,1.6646,1.6638,1.664,1.6629,1.6638,1.6637,1.6635,1.6588,1.6585,1.6647,1.6647,1.6647,1.6647,1.6647,1.6647,1.6793,1.6799,1.6786,1.6786,1.6774,1.6772,1.6767,1.6759,1.6749,1.6744,1.6739,1.6726,1.671,1.6701,1.6694,1.6688,1.6686,1.6699,1.6689,1.6645,1.6638,1.6631,1.6629,1.6699,1.6699,1.6737,1.6737,1.6737]},{"header":{"parameterUnit":"m.s-1","parameterCategory":1,"la1":30.2991,"la2":30.254,"lo1":-89.0895,"lo2":-89.0444,"dy":0.0017,"dx":0.0017,"nx":28,"ny":28,"refTime":"2023-11-20T09:00:00:Z","depth":0,"parameterNumber":3,"parameterNumberName":"V-component_of_WINDS"},"data":[0,0,0,0,0,0,0,0,0,0,0,0,0,0,0,0,0,0,0,0,0,0,0,0,0,0,0,0,0,0,0,0,0,0,0,0,0,0,0,0,0,0,0,0,0,0,0,0,0,0,0,0,0,0,0,0,0,0,7.1128,7.1129,0,7.127,7.1271,7.1273,7.1277,7.1275,7.1274,7.1272,7.1413,7.1418,7.1423,0,0,0,0,0,0,0,0,0,0,0,0,0,7.0856,7.0861,7.1128,7.113,7.1131,7.1269,7.1271,7.1273,7.1277,7.1275,7.1273,7.1271,7.1411,7.1418,7.1424,0,0,0,0,0,0,0,0,0,0,0,0,0,7.0984,7.0863,7.1127,7.115,7.1154,7.1269,7.1271,7.1274,7.1278,7.1275,7.1273,7.127,7.1409,7.1417,7.1425,7.1526,0,0,7.1449,7.1453,0,0,0,0,0,0,0,0,7.0976,7.0994,7.1145,7.1149,7.1153,7.1253,7.1227,7.1358,7.1278,7.123,7.1272,7.1269,7.1362,7.1373,7.1405,7.1532,7.1539,7.145,7.1455,7.1458,7.1461,0,0,0,0,0,0,0,7.0968,7.0988,7.1184,7.1147,7.1152,7.1152,7.1167,7.1252,7.1309,7.1234,7.1235,7.1252,7.1363,7.1398,7.1409,7.1541,7.145,7.1457,7.1462,7.1465,7.1759,7.1762,0,0,0,0,0,0,7.0955,7.098,7.1179,7.1188,7.1057,7.1159,7.1176,7.1223,7.1308,7.1318,7.1254,7.1252,7.1385,7.1399,7.1414,7.154,7.1458,7.1466,7.147,7.1756,7.176,7.1763,0,0,0,0,0,0,7.0949,7.0973,7.1174,7.1084,7.111,7.1166,7.122,7.1228,7.1262,7.1323,7.1332,7.1279,7.1384,7.1402,7.1499,7.1544,7.1469,7.1477,7.1753,7.1757,7.1762,7.1791,0,0,0,0,0,0,7.0941,7.0971,7.1011,7.1085,7.1115,7.1257,7.1222,7.1232,7.1277,7.1275,7.1349,7.1359,7.1383,7.1487,7.1507,7.1554,7.1483,7.1749,7.1755,7.176,7.1786,7.1795,7.1804,0,0,0,0,0,7.0932,7.1012,7.1013,7.1037,7.1166,7.126,7.1277,7.1305,7.128,7.1321,7.1359,7.1356,7.1536,7.1497,7.1519,7.1569,7.1746,7.1753,7.176,7.1782,7.1794,7.1804,0,0,0,0,0,0,7.0939,7.1022,7.1024,7.1131,7.1189,7.1261,7.1312,7.1316,7.1381,7.1376,7.1406,7.1423,7.1519,7.1553,7.1508,7.1672,7.1638,7.165,7.1647,7.1659,7.1668,7.1658,7.149,0,0,0,0,0,7.0953,7.1024,7.1092,7.1179,7.1209,7.1255,7.1297,7.1314,7.1374,7.1398,7.1444,7.1502,7.1571,7.1617,7.1684,7.179,7.1807,7.1836,7.1845,7.1852,7.1862,7.1922,7.1937,7.1785,7.1785,7.1785,0,0,7.0983,7.1037,7.1079,7.1182,7.1229,7.1301,7.1276,7.1352,7.1406,7.1409,7.1505,7.154,7.1606,7.1708,7.1756,7.174,7.1907,7.186,7.1866,7.1872,7.1931,7.1945,7.1958,7.179,7.1789,7.1788,0,0,7.1074,7.1122,7.1202,7.1249,7.1321,7.1352,7.1371,7.1443,7.1467,7.1563,7.1568,7.1631,7.1749,7.1797,7.1837,7.1947,7.1947,7.1968,7.2016,7.2074,7.2086,7.2097,7.2138,7.2152,7.1977,7.1977,7.1978,0,7.1102,7.1212,7.1241,7.1319,7.1365,7.1372,7.1453,7.1497,7.1586,7.1617,7.1598,7.1749,7.1794,7.1908,7.1935,7.1967,7.1989,7.1961,7.2082,7.2093,7.2104,7.2143,7.2158,7.198,7.1979,7.1979,7.1979,0,7.1244,7.132,7.1375,7.1464,7.1515,7.1593,7.1633,7.1681,7.1693,7.1725,7.1823,7.1877,7.1957,7.1984,7.1996,7.2101,7.2089,7.2076,7.2042,7.212,7.2158,7.2173,7.1983,7.1982,7.1981,7.1981,0,0,7.1345,7.1449,7.1469,7.151,7.159,7.1649,7.1727,7.1807,7.1848,7.1908,7.1976,7.2076,7.2065,7.211,7.2127,7.2178,7.2264,7.2159,7.2161,7.2178,7.2385,7.2396,7.2414,7.2264,7.2267,7.2269,7.238,0,7.1447,7.1589,7.1618,7.1741,7.1812,7.182,7.1889,7.1945,7.1977,7.2041,7.2075,7.2147,7.2126,7.2153,7.2204,7.2243,7.2307,7.2235,7.2327,7.233,7.2313,7.2433,7.2445,7.2547,7.2395,7.2398,7.2399,0,7.1585,7.1652,7.1783,7.1855,7.1886,7.1947,7.2023,7.2084,7.2147,7.2167,7.2218,7.2229,7.231,7.2272,7.2385,7.2335,7.2374,7.2399,7.2403,7.2415,7.2371,7.2449,7.258,7.2596,7.2423,7.2421,7.2419,0,7.1648,7.1771,7.1866,7.19,7.1986,7.2029,7.2066,7.2127,7.2173,7.2238,7.2269,7.2341,7.2382,7.2438,7.2468,7.2437,7.258,7.2543,7.2599,7.2598,7.263,7.2628,7.2771,7.2651,7.2651,7.2651,7.2651,0,7.1761,7.1841,7.1896,7.1954,7.2044,7.2075,7.2163,7.2199,7.2254,7.2319,7.2329,7.2389,7.2425,7.2491,7.2515,7.2605,7.2623,7.2641,7.2647,7.2642,7.264,7.2669,7.2664,7.2655,7.2654,7.2653,7.2653,0,7.1848,7.1887,7.1992,7.2065,7.2085,7.2148,7.221,7.2267,7.2299,7.2381,7.2402,7.2452,7.253,7.2565,7.2661,7.2677,7.2781,7.2781,7.276,7.2763,7.2818,7.2813,7.2986,7.3011,7.2873,7.2875,7.2876,0,7.1918,7.198,7.2061,7.2106,7.2145,7.2217,7.2265,7.2298,7.2347,7.2424,7.2472,7.255,7.2615,7.2738,7.2783,7.2856,7.2859,7.2914,7.287,7.2863,7.2862,7.2859,7.2866,7.2923,7.2924,7.2926,7.2926,0,7.2039,7.2056,7.2125,7.2202,7.2259,7.2321,7.2381,7.2417,7.2458,7.2513,7.2594,7.2644,7.2743,7.2821,7.2897,7.2934,7.2938,7.294,7.2957,7.2954,7.294,7.295,7.2785,7.2936,7.2935,7.2935,7.2934,7.2934,7.2121,7.2178,7.2244,7.2321,7.237,7.2426,7.2484,7.2524,7.2592,7.2676,7.269,7.2777,7.2838,7.2942,7.2982,7.3049,7.3036,7.306,7.3067,7.3073,7.3077,7.2928,7.3063,7.3063,7.3062,7.3062,7.3062,0,7.2244,7.2288,7.2358,7.2444,7.2504,7.2503,7.257,7.262,7.2697,7.2755,7.2819,7.2912,7.2988,7.3038,7.3115,7.3159,7.3163,7.3179,7.3177,7.3186,7.3084,7.3062,7.3175,7.3175,7.3175,7.3175,7.3175,7.3175,7.2316,7.2412,7.2437,7.2557,7.2599,7.2686,7.2724,7.2776,7.2823,7.2927,7.2991,7.3024,7.3079,7.316,7.323,7.3242,7.3271,7.3287,7.33,7.3204,7.3193,7.3181,7.3162,7.3293,7.3293,7.3397,7.3397,7.3398]}]]